Flag for Morocco Weather past 2 weeks in Marrakech, Morocco

Now
46 °F

Cool.


Feels Like: 44 °F
Forecast: 49 / 67 °F
Wind: 5 mph from East

Location: Marrakech Airport

Current Time: Dec 23, 2014 at 4:35:36 AM

Latest Report: Dec 23, 2014 at 4:00 AM


Visibility: N/A

Pressure: 30.27 "Hg

Humidity: 93%

Dew point: 45 °F

Location of MarrakechLocation

Historic Weather in Marrakech — Graph

°F

Marrakech temperature yesterday

Maximum temperature yesterday: 66 °F (at 1:00 PM)
Minimum temperature yesterday: 46 °F (at 5:00 AM)
Average temperature yesterday: 57 °F

Past Weeks' High & Low Weather Summary

 TemperatureHumidityPressure
High73 °F (Dec 10, 2:30 PM)100% (Dec 8, 3:30 AM)30.42 "Hg (Dec 8, 3:30 AM)
Low43 °F (Dec 8, 6:30 AM)20% (Dec 9, 3:00 PM)29.95 "Hg (Dec 13, 4:00 PM)
Average55 °F78%30.26 "Hg
* Reported Dec 8 3:00 AM — Dec 23 3:30 AM, Marrakech, Weather by CustomWeather, © 2014

Note: Actual official high and low records may vary slightly from our data, if they occured in-between our weather recording intervals... More about our weather records

Advertising

Marrakech weather history for previous 24 hours

 ConditionsComfort  
Time TempWeatherWind HumidityBarometerVisibility
3:30 AM
Dec 23
46 °FCool.5 mph93%30.27 "HgN/A
3:00 AM48 °FClear.5 mph94%30.27 "Hg10 mi
2:00 AM48 °FClear.No wind87%30.27 "Hg10 mi
1:30 AM50 °FClear.No wind82%30.27 "Hg10 mi
1:00 AM52 °FClear.No wind77%30.27 "Hg10 mi
12:30 AM52 °FClear.No wind82%30.27 "Hg10 mi
12:00 AM54 °FClear.No wind77%30.27 "Hg10 mi
11:30 PM
Dec 22
54 °FClear.2 mph77%30.27 "Hg10 mi
11:00 PM55 °FClear.2 mph72%30.27 "Hg10 mi
10:30 PM55 °FClear.3 mph77%30.27 "Hg10 mi
9:30 PM55 °FClear.2 mph77%30.27 "Hg10 mi
9:00 PM55 °FClear.2 mph77%30.27 "Hg10 mi
8:30 PM55 °FClear.No wind77%30.27 "Hg10 mi
8:00 PM55 °FClear.2 mph77%30.27 "Hg10 mi
7:30 PM59 °FClear.2 mph68%30.27 "Hg10 mi
7:00 PM59 °FPassing clouds.5 mph68%30.27 "HgN/A
6:30 PM61 °FPassing clouds.3 mph59%30.27 "HgN/A
6:00 PM61 °FPassing clouds.3 mph59%30.24 "HgN/A
5:30 PM63 °FPassing clouds.6 mph56%30.24 "HgN/A
5:00 PM64 °FPassing clouds.6 mph56%30.24 "HgN/A
4:30 PM66 °FPartly sunny.9 mph56%30.24 "HgN/A
4:00 PM66 °FPartly sunny.6 mph56%30.24 "HgN/A
3:30 PM66 °FPartly sunny.7 mph60%30.24 "HgN/A
3:00 PM66 °FPartly sunny.5 mph60%30.24 "HgN/A
2:30 PM66 °FPassing clouds.5 mph60%30.21 "HgN/A
2:00 PM66 °FSunny.2 mph60%30.24 "Hg10 mi
1:30 PM66 °FSunny.2 mph60%30.24 "Hg10 mi
1:00 PM66 °FSunny.No wind60%30.24 "Hg10 mi
12:30 PM64 °FSunny.No wind64%30.27 "Hg10 mi
12:00 PM64 °FSunny.No wind64%30.27 "Hg10 mi
11:30 AM64 °FClear.No wind68%30.27 "Hg5 mi
11:00 AM63 °FSunny.No wind68%30.30 "Hg10 mi
10:30 AM63 °FSunny.No wind73%30.30 "Hg10 mi
10:00 AM59 °FSunny.No wind82%30.30 "Hg10 mi
9:30 AM55 °FPassing clouds.3 mph88%30.30 "HgN/A
9:00 AM52 °FSunny.2 mph100%30.30 "Hg10 mi
8:30 AM48 °FClear.5 mph100%30.27 "Hg4 mi
8:00 AM46 °FClear.3 mph100%30.27 "Hg4 mi
7:30 AM46 °FSunny.5 mph100%30.27 "Hg10 mi
7:00 AM48 °FSunny.No wind100%30.27 "Hg10 mi
6:30 AM48 °FSunny.2 mph100%30.27 "Hg10 mi
6:00 AM46 °FClear.2 mph100%30.27 "Hg10 mi
5:30 AM46 °FClear.6 mph100%30.27 "Hg10 mi
5:00 AM46 °FClear.5 mph100%30.27 "Hg10 mi
4:30 AM48 °FCool.No wind94%30.27 "HgN/A
Weather by CustomWeather, © 2014

See weather overviewHow to use our weather pages